Flag for Canada Weather past 2 weeks in Kingston, Ontario, Canada

Now
64 °F

Passing clouds.


Feels Like: 64 °F
Forecast: 61 / 76 °F
Wind: 6 mph from West

Location: Kingston

Current Time: Aug 1, 2014 at 11:51:21 PM

Latest Report: Aug 1, 2014 at 11:00 PM


Visibility: 12 mi

Pressure: 30.14 "Hg

Humidity: 94%

Dew point: 63 °F

Location of KingstonLocation

Historic Weather in Kingston — Graph

°F

Kingston temperature yesterday

Maximum temperature yesterday: 70 °F (at 2:00 PM)
Minimum temperature yesterday: 64 °F (at 6:00 AM)
Average temperature yesterday: 67 °F

Past Weeks' High & Low Weather Summary

 TemperatureHumidityPressure
High81 °F (Jul 23, 1:00 PM)100% (Jul 19, 6:00 AM)30.25 "Hg (Jul 19, 6:00 AM)
Low52 °F (Jul 19, 6:00 AM)38% (Jul 24, 4:00 PM)29.61 "Hg (Jul 28, 9:00 AM)
Average68 °F76%30.02 "Hg
* Reported Jul 17 10:00 PM — Aug 1 10:00 PM, Kingston, Weather by CustomWeather, © 2014

Note: Actual official high and low records may vary slightly from our data, if they occured in-between our weather recording intervals... More about our weather records

Advertising

Kingston weather history for previous 24 hours

 ConditionsComfort  
Time TempWeatherWind HumidityBarometerVisibility
10:00 PM
Aug 1
66 °FPassing clouds.No wind88%30.13 "Hg12 mi
9:00 PM68 °FScattered clouds.6 mph83%30.12 "Hg12 mi
8:00 PM72 °FScattered clouds.2 mph78%30.11 "Hg12 mi
7:00 PM72 °FScattered clouds.7 mph78%30.11 "Hg12 mi
6:00 PM72 °FPassing clouds.10 mph73%30.11 "Hg12 mi
5:00 PM72 °FPassing clouds.6 mph83%30.12 "Hg12 mi
4:00 PM72 °FPassing clouds.10 mph78%30.12 "Hg12 mi
3:00 PM72 °FPassing clouds.10 mph78%30.13 "Hg12 mi
2:00 PM72 °FPassing clouds.12 mph78%30.14 "Hg12 mi
1:00 PM72 °FPassing clouds.12 mph78%30.13 "Hg12 mi
12:00 PM70 °FPassing clouds.10 mph83%30.13 "Hg10 mi
11:00 AM70 °FScattered clouds.10 mph83%30.13 "Hg10 mi
10:00 AM70 °FScattered clouds.10 mph78%30.12 "Hg12 mi
9:00 AM68 °FPassing clouds.12 mph88%30.12 "Hg12 mi
8:00 AM66 °FPartly sunny.8 mph94%30.11 "Hg15 mi
7:00 AM66 °FSprinkles. Mostly cloudy.12 mph94%30.11 "Hg10 mi
6:53 AM66 °FMostly cloudy.10 mph94%30.11 "Hg12 mi
6:00 AM66 °FPartly cloudy.10 mph88%30.09 "Hg12 mi
11:00 PM
Jul 31
66 °FClear.8 mph88%30.06 "Hg15 mi
Weather by CustomWeather, © 2014

See weather overviewHow to use our weather pages